Tracking 30106 objects as of 23-Jan-2025
HD Live streaming from Space Station
objects crossing your sky now

STARLINK-31497

Track STARLINK-31497 now!
10-day predictions
STARLINK-31497 is classified as:


NORAD ID: 60592
Int'l Code: 2024-150K
Perigee: 481.5 km
Apogee: 483.2 km
Inclination: 53.2 °
Period: 94.1 minutes
Semi major axis: 6853 km
RCS: Unknown
Launch date: August 20, 2024
Source: United States (US)
Launch site: AIR FORCE EASTERN TEST RANGE (AFETR)
Your satellite tracking list
Your tracking list is empty




NASA's NSSDC Master Catalog

Two Line Element Set (TLE):
1 60592U 24150K   25021.50775733  .00000817  00000-0  39710-4 0  9991
2 60592  53.1604  61.6263 0001244  93.0801 267.0342 15.30191890 24938
Source of the keplerian elements: AFSPC